FENGYUN 1C DEB, 30325

Orbit data source: Space-Track

FENGYUN 1C DEB, 30325 is space debris in SSO originally from a launch on Mon, 10 May 1999 UTC launched from the Taiyaun Space Center, China (TSC). Fengyun 1C debris stems from the Chinese weather satellite Fengyun-1C, which was intentionally destroyed by a Chinese anti-satellite missile in 2007. This event dramatically increased the amount of space debris, with thousands of trackable fragments posing hazards to satellites and human spaceflight. The Fengyun 1C debris cloud has become a focal point in discussions about space sustainability and the need for international regulations to prevent the creation of new debris.

Loading next visibility...
Identifier
30325, 1999-025AAL
Orbit
SSO
Country
Flag of CNCN / PRC
Related business
Manufacturer
Unknown
Mission
Spacecraft
Bus & Motor
Unknown
Mass
Unknown
Launch date (UTC)
1999-05-10 (26 years ago)
Launch vehicle
Unknown
Launch site
Taiyaun Space Center, China (TSC)
Object type
Payload
Rocket body
Debris
Shape & HBR
Unknown
Radar Cross Section
Small (<0.1 m²)

Expand to show TLE details & history
Last TLE update: 2 days ago

TLE from 2 days ago
0 FENGYUN 1C DEB
1 30325U 99025AAL 25259.00018915  .00000177  00000-0  12650-3 0  9997
2 30325  98.7426 281.0088 0016975 139.5488 220.6948 14.09060712957804
Epoch: 2025-09-16T00:00Z
TLE epoch observation values (Epoch: 2025-09-16T00:00:16.342Z)
Latitude
Longitude
-74.25607°
Altitude
874.816 km
Speed
7.41 km/s
True Right ascension
18h 44m 02s
True Declination
0° 00' 00"
Sunlit
Object was in daylight at epoch
Visualization orbit readout
Latitude
Unknown
Longitude
Unknown
Altitude
Unknown
Speed
Unknown
Apparent Right ascension
Unknown
Apparent Declination
Unknown
Sunlit
N/A
Visualization observer readout
Local Sidereal Time
05:36:14
Azimuth
Unknown
Elevation
Unknown
Doppler factor
Unknown
Orbital elements
Apogee altitude
872.049 km
Perigee altitude
847.476 km
Semi-major axis
7,237.9 km
Eccentricity
0.0017
Inclination
98.7426°
RAAN
281.0088°
Arg. of periapsis
139.5488°
True anomaly
220.56817°
Mean anomaly
220.6948°
Eccentric anomaly
220.63147°
Mean motion
3.52472 °/min
Orbital period
102.14 mins
BSTAR
0.0001265
Loading maneuver chart data...
Computing Atmospheric mass density...
Loading historical data...
Loading historical data...
Loading historical data...
Loading historical data...
Loading historical data...
Loading historical data...
Loading historical data...

Documentation

Showing up to 5 results
|